Wind_Speed
17 18 18 17 17 17 17 15 14 14 14 14 14 14 15 15 16 16 17 17 18 18 18 17 16 16 15 14 14 13 12 11 11 11 11 11 11 10 8 7 5 3 2
16 16 16 15 15 15 15 13 12 12 12 12 12 12 13 14 15 15 15 16 17 17 17 17 16 15 14 14 13 13 12 12 11 11 11 11 11 10 9 8 6 5 2
14 14 13 13 12 12 11 10 9 8 8 9 9 10 10 11 12 13 13 14 15 16 16 16 16 15 14 13 12 12 11 11 10 10 10 10 10 10 10 9 6 5 3
12 11 11 11 10 9 8 7 6 5 5 5 6 7 7 8 9 10 12 12 13 14 14 15 14 14 14 13 12 11 11 10 9 9 8 8 8 8 9 8 7 5 3
9 9 8 8 7 7 6 5 4 4 4 4 5 5 5 6 7 9 10 12 12 13 14 13 13 13 13 13 13 12 11 10 9 8 8 8 7 7 7 8 7 5 4
6 6 5 5 4 4 4 4 4 4 4 4 5 5 5 6 7 9 11 12 13 13 14 14 13 13 12 12 12 12 11 10 9 8 8 9 8 6 7 7 7 6 5
1 2 2 1 1 2 2 3 4 5 5 5 6 6 7 8 9 11 12 14 15 15 15 15 14 13 13 12 12 12 12 11 10 9 8 9 9 8 7 7 7 7 6
4 3 3 3 2 2 2 3 4 5 6 7 8 8 9 10 10 12 13 15 16 16 16 16 15 14 13 13 12 12 12 12 11 10 9 10 10 9 8 8 8 8 8
7 7 7 6 5 4 4 4 4 5 7 8 9 9 9 9 10 12 14 15 16 16 15 16 15 14 13 13 13 12 12 11 11 10 10 11 10 10 9 9 10 10 10
10 10 9 9 8 7 6 5 4 4 6 8 9 9 8 8 9 11 13 14 15 16 15 15 15 14 14 14 14 14 13 12 11 10 11 11 10 11 10 10 11 11 11
11 11 11 11 11 9 7 7 6 5 7 8 9 9 8 8 9 11 12 13 14 15 15 15 14 14 14 15 15 15 14 13 12 11 11 11 12 13 12 12 12 12 12
13 12 12 12 12 11 10 10 9 10 11 11 11 10 9 9 10 12 14 15 15 15 16 16 15 14 15 15 15 15 15 14 13 13 13 13 14 15 15 15 14 13 12
13 13 13 13 13 13 13 14 14 14 15 14 13 11 10 10 12 15 17 17 17 17 17 17 17 16 16 16 15 15 16 15 14 14 15 15 15 16 17 17 15 13 12
14 13 14 15 15 16 17 17 17 17 17 15 13 11 11 11 13 16 19 19 18 18 18 17 18 19 18 17 17 17 17 17 16 16 16 16 16 17 18 17 15 13 11
16 16 16 16 16 16 16 16 17 17 16 15 15 14 14 14 14 17 19 21 21 21 20 20 20 20 20 19 19 19 19 18 17 17 17 17 17 18 18 17 15 13 12
20 20 20 19 18 17 17 17 17 18 18 17 18 18 18 18 18 19 20 21 21 21 21 21 21 21 22 22 21 21 21 20 19 19 19 19 19 19 19 18 15 14 13
24 24 24 23 22 21 21 21 21 21 21 21 21 21 21 21 21 21 22 22 22 22 22 22 22 22 22 23 24 24 24 23 22 21 21 21 20 20 19 19 17 16 15
29 28 28 27 26 26 25 25 25 26 26 27 26 25 25 25 26 26 26 25 26 26 25 25 25 25 24 24 25 25 26 26 26 24 24 23 23 22 21 20 19 18 18
34 32 31 30 30 29 29 29 28 29 30 31 31 31 30 30 30 31 30 29 29 30 30 29 28 28 27 26 25 26 27 28 29 28 27 26 25 24 23 22 21 21 20
35 35 33 32 32 32 32 31 31 32 33 34 35 35 35 34 34 35 34 34 33 33 33 33 32 31 30 29 27 27 27 29 30 31 31 30 29 27 25 24 23 22 21
35 35 36 36 35 35 34 34 34 35 36 37 39 39 39 38 38 38 38 38 37 36 36 36 36 35 33 32 30 28 27 28 30 32 32 32 31 30 27 25 25 23 23
37 37 37 39 37 36 37 36 36 37 39 40 41 41 41 41 40 40 41 41 42 41 40 39 40 39 38 35 33 30 28 28 29 32 33 33 32 29 27 26 26 26 25
41 39 41 42 40 40 40 39 40 40 41 42 42 42 42 42 41 41 42 43 44 45 44 43 43 42 41 39 36 34 31 30 30 31 33 33 33 31 28 27 26 26 25
41 40 40 41 42 41 41 41 42 42 42 42 42 42 41 42 42 42 43 44 45 46 47 47 46 45 44 41 39 36 34 32 31 31 33 34 33 31 31 29 28 28 26
38 39 39 40 40 40 41 42 42 42 41 40 39 39 40 41 42 44 45 46 46 47 48 49 49 47 45 43 40 38 36 34 34 33 33 34 34 32 31 30 29 28 27
39 38 37 38 38 38 38 39 39 39 38 38 38 39 41 43 44 46 47 47 47 47 48 49 49 48 45 43 41 39 38 37 36 35 34 34 34 33 32 31 31 29 28
Wind_Direction
87 85 86 85 85 86 86 84 79 73 68 63 57 52 50 48 45 42 38 37 36 36 38 39 40 41 42 43 44 42 39 36 35 36 36 37 41 46 46 46 47 58 75
88 86 86 85 85 86 85 82 76 69 64 59 55 51 49 47 44 41 37 34 32 31 32 33 33 33 36 38 39 41 41 41 39 38 37 36 40 45 49 48 46 44 37
92 90 88 87 87 87 86 81 72 61 54 49 48 51 50 47 43 39 35 31 27 25 25 26 28 27 28 30 33 36 39 41 40 39 37 37 38 40 42 42 41 40 38
98 95 91 89 87 87 86 81 67 54 47 42 43 47 46 40 35 32 28 24 21 18 18 18 19 19 21 22 26 29 31 33 31 30 31 34 33 32 35 33 32 33 33
104 102 99 95 91 87 85 82 71 55 45 38 32 31 28 21 14 13 13 12 9 6 4 6 8 8 9 12 15 19 21 23 24 19 13 17 24 24 27 27 26 29 31
109 107 104 103 99 93 83 71 56 42 33 24 14 10 5 0 356 353 355 356 355 352 350 350 353 356 356 358 3 8 10 10 14 13 4 357 4 8 9 11 13 17 19
106 101 101 103 90 65 48 42 35 23 15 8 2 358 354 351 348 348 347 345 343 341 339 338 341 345 346 347 351 357 359 358 358 359 354 346 353 356 350 348 351 355 357
280 295 298 294 291 312 343 360 7 5 358 354 351 348 347 347 350 352 349 344 339 335 332 330 331 335 338 340 341 345 349 350 348 347 342 340 346 347 341 335 334 333 332
286 286 284 286 286 293 308 325 340 355 1 1 0 356 354 356 359 0 357 351 345 337 330 325 323 324 329 333 334 335 339 340 339 339 334 336 341 340 335 330 326 321 318
286 286 282 280 282 286 292 300 315 338 352 355 357 352 348 349 350 354 357 353 349 342 332 325 318 315 318 325 327 327 329 328 328 327 323 327 333 333 331 331 331 326 319
277 283 281 277 277 279 281 281 285 301 318 328 335 333 327 327 332 338 343 346 343 338 332 325 316 311 310 315 320 321 322 318 316 313 310 314 319 321 324 327 328 327 325
272 275 275 270 267 267 269 273 276 287 297 303 309 311 308 307 316 323 330 338 338 333 328 323 314 306 302 304 308 311 315 312 307 304 301 302 306 312 317 319 319 321 325
269 269 267 266 262 264 267 271 277 287 293 295 297 297 296 303 313 320 328 334 334 331 326 319 313 305 298 295 297 302 306 306 302 298 295 296 300 306 310 311 311 311 316
269 268 266 265 266 266 268 271 277 283 288 293 297 293 292 300 310 318 323 327 329 328 325 319 308 302 297 291 288 290 296 303 302 297 294 295 297 300 303 306 306 304 306
262 265 265 266 270 274 278 280 282 285 290 296 299 298 298 302 307 313 317 321 324 325 322 319 313 303 295 289 282 282 288 294 295 293 291 289 289 292 297 301 303 303 305
259 262 264 266 268 271 274 277 280 285 289 291 293 295 297 300 304 308 311 315 319 321 319 317 316 308 296 287 280 275 277 281 285 285 284 282 282 286 291 294 297 300 303
260 263 266 267 269 270 273 276 280 283 286 287 289 292 294 296 301 306 308 312 314 314 315 314 313 312 305 290 282 275 271 273 276 278 280 280 280 283 286 288 290 294 299
258 262 266 269 271 273 276 279 283 286 289 291 292 293 295 298 301 305 306 308 311 311 310 309 309 308 307 299 285 277 270 268 270 273 276 277 277 279 282 283 284 288 293
255 257 261 267 271 275 278 281 283 286 289 291 293 294 295 297 299 303 304 305 306 307 306 304 304 305 304 301 292 280 272 267 268 269 271 273 273 274 278 278 279 281 286
254 254 256 262 269 274 278 281 284 286 287 289 290 292 293 295 296 299 300 300 302 302 302 301 301 301 301 299 295 285 275 268 265 267 269 270 271 273 276 276 275 277 283
256 259 260 259 264 270 274 278 281 283 284 286 287 289 291 293 293 294 294 296 297 298 298 297 297 297 298 296 294 288 281 272 264 264 266 269 272 272 272 274 274 275 279
270 270 264 262 261 265 269 274 277 279 281 282 285 287 289 290 291 290 290 292 294 295 295 294 293 292 293 292 289 285 281 276 267 263 264 268 272 273 270 270 270 271 274
271 272 269 265 266 268 269 271 274 277 278 280 282 283 285 287 287 288 288 290 291 292 292 292 290 289 288 287 285 281 279 275 270 266 265 266 269 271 271 269 266 267 270
272 272 273 268 266 267 268 271 274 276 278 279 279 281 282 284 286 287 288 289 289 288 289 289 288 287 285 283 280 277 275 272 269 267 267 266 267 267 267 264 262 264 268
273 274 274 271 269 268 268 271 274 276 278 279 280 281 283 285 286 287 288 287 287 286 286 285 285 284 282 279 275 273 271 270 268 266 264 265 265 265 264 261 259 260 265
273 274 272 271 270 270 272 274 276 278 279 280 281 283 284 285 287 287 287 287 286 284 283 282 282 281 280 276 272 269 267 267 269 267 263 263 263 263 262 258 255 256 262
Height
5926 5925 5925 5926 5926 5927 5927 5928 5929 5929 5929 5929 5929 5928 5927 5926 5925 5923 5922 5920 5919 5917 5916 5915 5913 5912 5910 5909 5908 5907 5906 5905 5904 5903 5902 5901 5900 5899 5898 5897 5897 5896 5896
5928 5928 5928 5929 5929 5929 5930 5931 5931 5932 5932 5931 5931 5930 5929 5928 5927 5926 5924 5923 5921 5919 5918 5917 5915 5914 5912 5911 5910 5908 5907 5906 5905 5904 5903 5902 5900 5900 5899 5898 5897 5896 5896
5930 5930 5931 5931 5931 5932 5932 5932 5933 5933 5933 5933 5932 5932 5931 5930 5929 5928 5926 5925 5923 5921 5920 5918 5917 5916 5914 5913 5911 5910 5908 5907 5906 5905 5904 5903 5901 5900 5899 5899 5898 5897 5896
5932 5932 5932 5933 5933 5933 5933 5934 5934 5934 5934 5934 5933 5933 5932 5931 5930 5929 5928 5927 5925 5923 5921 5920 5918 5917 5915 5914 5912 5911 5909 5908 5907 5906 5904 5903 5902 5901 5900 5899 5898 5897 5896
5933 5933 5934 5934 5934 5935 5935 5935 5935 5935 5935 5935 5934 5933 5933 5932 5931 5930 5929 5928 5926 5924 5922 5921 5919 5917 5916 5914 5913 5911 5910 5909 5907 5906 5904 5903 5902 5901 5900 5899 5898 5897 5896
5934 5934 5935 5935 5935 5936 5936 5936 5936 5936 5936 5935 5935 5934 5934 5933 5932 5931 5930 5929 5928 5926 5923 5921 5919 5918 5916 5915 5913 5912 5911 5909 5908 5906 5904 5903 5902 5901 5899 5898 5898 5896 5895
5935 5935 5935 5936 5936 5936 5937 5937 5937 5937 5936 5936 5935 5935 5934 5933 5932 5932 5931 5929 5928 5926 5924 5922 5920 5918 5916 5914 5913 5912 5911 5909 5908 5907 5905 5902 5901 5900 5899 5898 5897 5895 5894
5935 5935 5936 5936 5936 5937 5937 5937 5937 5937 5936 5936 5935 5934 5934 5933 5932 5931 5930 5928 5927 5925 5923 5921 5919 5918 5916 5914 5913 5911 5910 5909 5908 5906 5904 5902 5901 5899 5898 5897 5895 5894 5893
5934 5935 5935 5936 5936 5936 5936 5936 5936 5936 5936 5935 5934 5933 5933 5932 5931 5930 5928 5927 5925 5924 5922 5920 5918 5917 5915 5913 5912 5911 5909 5908 5907 5905 5903 5902 5900 5898 5896 5895 5893 5892 5890
5933 5934 5934 5935 5935 5935 5935 5935 5935 5935 5934 5934 5933 5932 5931 5930 5929 5928 5926 5925 5923 5922 5920 5918 5916 5915 5914 5912 5910 5909 5908 5907 5905 5904 5902 5901 5899 5897 5895 5893 5891 5889 5888
5932 5933 5933 5933 5933 5934 5933 5933 5933 5932 5932 5932 5931 5930 5929 5928 5926 5925 5924 5923 5921 5920 5918 5915 5914 5912 5911 5910 5908 5907 5906 5905 5903 5902 5901 5899 5898 5896 5894 5891 5889 5887 5885
5930 5931 5931 5931 5931 5932 5932 5931 5931 5930 5930 5929 5928 5927 5926 5925 5924 5923 5921 5920 5919 5917 5915 5913 5911 5909 5908 5907 5906 5904 5903 5902 5901 5900 5898 5897 5896 5894 5892 5890 5888 5886 5884
5928 5928 5929 5929 5929 5929 5929 5929 5928 5927 5927 5926 5925 5924 5923 5922 5921 5919 5918 5916 5915 5914 5913 5911 5909 5907 5905 5904 5902 5901 5900 5899 5898 5897 5896 5895 5893 5892 5890 5889 5887 5885 5882
5924 5925 5926 5926 5926 5926 5926 5925 5925 5924 5924 5922 5922 5922 5921 5920 5918 5916 5914 5913 5912 5910 5909 5907 5906 5904 5902 5901 5899 5897 5896 5895 5895 5894 5893 5891 5890 5889 5888 5887 5885 5883 5880
5922 5922 5922 5922 5922 5921 5921 5921 5921 5920 5920 5919 5918 5918 5917 5917 5916 5914 5912 5910 5908 5906 5905 5903 5901 5900 5898 5897 5895 5894 5892 5892 5891 5891 5889 5888 5888 5887 5885 5884 5882 5880 5879
5919 5919 5919 5919 5919 5918 5918 5918 5918 5917 5916 5916 5915 5914 5914 5913 5912 5911 5910 5907 5905 5903 5900 5899 5897 5895 5893 5892 5891 5890 5889 5888 5887 5887 5886 5885 5884 5883 5882 5880 5879 5877 5876
5914 5914 5914 5914 5914 5914 5914 5913 5913 5912 5912 5911 5911 5910 5909 5908 5907 5906 5904 5902 5901 5899 5897 5895 5893 5891 5889 5887 5885 5884 5884 5883 5882 5882 5881 5880 5879 5878 5877 5876 5875 5873 5872
5907 5908 5908 5908 5908 5907 5907 5906 5906 5905 5904 5904 5903 5903 5902 5901 5901 5900 5898 5896 5894 5893 5891 5890 5888 5886 5884 5882 5880 5879 5878 5877 5876 5876 5875 5874 5873 5872 5871 5870 5869 5868 5867
5899 5900 5900 5901 5901 5900 5900 5899 5899 5898 5897 5896 5895 5895 5895 5894 5893 5893 5891 5890 5888 5887 5885 5884 5882 5880 5878 5876 5874 5872 5872 5871 5870 5870 5869 5868 5867 5866 5865 5865 5864 5863 5862
5889 5890 5891 5892 5893 5893 5892 5892 5892 5891 5890 5890 5888 5888 5887 5887 5886 5885 5884 5883 5882 5880 5879 5877 5875 5874 5872 5870 5868 5866 5865 5864 5864 5863 5862 5862 5861 5860 5859 5859 5858 5858 5857
5882 5882 5883 5884 5884 5884 5885 5884 5884 5884 5883 5882 5881 5880 5880 5879 5879 5878 5877 5875 5874 5873 5872 5870 5868 5867 5865 5863 5861 5860 5858 5857 5857 5856 5855 5855 5855 5854 5853 5852 5851 5851 5851
5875 5876 5874 5872 5873 5875 5875 5876 5876 5876 5875 5875 5874 5872 5871 5871 5870 5870 5869 5867 5865 5864 5863 5862 5860 5858 5857 5855 5854 5852 5852 5851 5850 5849 5849 5848 5847 5846 5846 5846 5845 5845 5845
5866 5867 5865 5863 5864 5866 5866 5867 5867 5867 5867 5866 5866 5865 5864 5863 5862 5861 5860 5859 5857 5855 5854 5852 5850 5849 5848 5846 5845 5844 5844 5844 5842 5842 5841 5841 5841 5840 5839 5839 5838 5838 5838
5857 5856 5855 5856 5856 5857 5857 5857 5858 5858 5859 5858 5857 5856 5855 5854 5853 5852 5851 5849 5848 5845 5844 5842 5840 5839 5838 5837 5836 5835 5835 5835 5835 5834 5834 5833 5834 5833 5832 5832 5831 5831 5831
5846 5846 5846 5846 5846 5847 5848 5849 5849 5849 5849 5849 5848 5848 5847 5845 5844 5843 5841 5839 5837 5835 5833 5831 5829 5827 5826 5826 5826 5825 5825 5825 5825 5826 5826 5826 5826 5826 5825 5824 5824 5824 5824
5836 5836 5836 5837 5837 5838 5839 5839 5839 5839 5840 5840 5839 5839 5838 5836 5834 5832 5830 5828 5826 5824 5822 5820 5817 5816 5815 5815 5815 5815 5815 5815 5815 5816 5817 5817 5817 5817 5817 5817 5816 5817 5816